Вернуться в каталог

UNKNOWN PAYLOAD

АктивенSSO
NORAD 58927·DEBRIS·🇨🇳 China
Это название спутника еще не подтверждено официальными источниками.

Запущен Feb 3, 2024 с South China Sea Launch Area

Loading…

Ближайшие Пролёты (ближайшие 24 часа)

TLE

СвежийSource: Space-Track

Эпоха: Sep 14, 2026, 11:11 UTC

1 58927U 24024L   26257.46654412  .00029920  00000-0  86710-3 0  9994
2 58927  97.2982 323.6679 0005054 205.8167 154.2826 15.35494528122042

Отслеживайте UNKNOWN PAYLOAD в реальном времени с AllMySat

Download on the App Store